TimeCST,TemperatureF,Dew PointF,Humidity,Sea Level PressureIn,VisibilityMPH,Wind Direction,Wind SpeedMPH,Gust SpeedMPH,PrecipitationIn,Events,Conditions,WindDirDegrees,DateUTC
12:15 AM,28.4,14.0,55,30.32,10.0,NNW,8.1,-,N/A,,Clear,340,2013-01-24 06:15:00
12:35 AM,28.4,15.8,59,30.33,10.0,North,5.8,-,N/A,,Clear,350,2013-01-24 06:35:00
12:55 AM,28.4,15.8,59,30.34,10.0,North,9.2,-,N/A,,Clear,360,2013-01-24 06:55:00
1:15 AM,26.6,14.0,59,30.36,10.0,North,9.2,-,N/A,,Clear,350,2013-01-24 07:15:00
1:35 AM,26.6,14.0,59,30.37,10.0,North,8.1,-,N/A,,Clear,360,2013-01-24 07:35:00
1:55 AM,26.6,12.2,55,30.38,10.0,North,8.1,16.1,N/A,,Clear,360,2013-01-24 07:55:00
2:15 AM,24.8,12.2,59,30.39,10.0,North,9.2,19.6,N/A,,Clear,360,2013-01-24 08:15:00
2:35 AM,24.8,12.2,59,30.41,10.0,North,8.1,16.1,N/A,,Partly Cloudy,10,2013-01-24 08:35:00
2:55 AM,23.0,10.4,59,30.42,10.0,North,10.4,19.6,N/A,,Partly Cloudy,360,2013-01-24 08:55:00
3:15 AM,23.0,10.4,59,30.43,10.0,NNE,10.4,17.3,N/A,,Scattered Clouds,20,2013-01-24 09:15:00
3:35 AM,21.2,10.4,63,30.43,10.0,North,12.7,18.4,N/A,,Partly Cloudy,10,2013-01-24 09:35:00
3:55 AM,21.2,8.6,58,30.44,10.0,North,9.2,-,N/A,,Clear,10,2013-01-24 09:55:00
4:35 AM,19.4,8.6,63,30.46,10.0,North,9.2,-,N/A,,Clear,10,2013-01-24 10:35:00
4:55 AM,19.4,8.6,63,30.48,10.0,North,8.1,-,N/A,,Clear,10,2013-01-24 10:55:00
5:15 AM,19.4,8.6,63,30.49,10.0,NNE,8.1,-,N/A,,Clear,20,2013-01-24 11:15:00
5:35 AM,19.4,8.6,63,30.51,10.0,NNE,6.9,-,N/A,,Mostly Cloudy,30,2013-01-24 11:35:00
5:55 AM,19.4,8.6,63,30.52,10.0,NNE,6.9,-,N/A,,Overcast,30,2013-01-24 11:55:00
6:15 AM,17.6,8.6,68,30.53,10.0,NNE,9.2,-,N/A,,Mostly Cloudy,20,2013-01-24 12:15:00
6:35 AM,17.6,5.0,58,30.54,10.0,NNE,6.9,-,N/A,,Clear,20,2013-01-24 12:35:00
6:55 AM,17.6,1.4,49,30.55,10.0,NNE,6.9,-,N/A,,Clear,30,2013-01-24 12:55:00
7:15 AM,17.6,-0.4,45,30.54,10.0,NNE,4.6,-,N/A,,Clear,20,2013-01-24 13:15:00
7:35 AM,17.6,1.4,49,30.55,10.0,Calm,Calm,-,N/A,,Clear,0,2013-01-24 13:35:00
7:55 AM,17.6,3.2,53,30.55,10.0,NNE,5.8,-,N/A,,Clear,20,2013-01-24 13:55:00
8:15 AM,17.6,1.4,49,30.57,10.0,NNE,6.9,-,N/A,,Clear,30,2013-01-24 14:15:00
8:35 AM,17.6,1.4,49,30.58,10.0,NE,9.2,-,N/A,,Clear,40,2013-01-24 14:35:00
8:55 AM,17.6,3.2,53,30.58,10.0,NNE,6.9,-,N/A,,Clear,20,2013-01-24 14:55:00
9:35 AM,17.6,5.0,58,30.59,10.0,NNE,11.5,-,N/A,,Clear,30,2013-01-24 15:35:00
9:55 AM,19.4,6.8,58,30.62,10.0,NE,10.4,-,N/A,,Clear,40,2013-01-24 15:55:00
10:15 AM,19.4,5.0,54,30.62,10.0,NNE,8.1,-,N/A,,Clear,30,2013-01-24 16:15:00
10:35 AM,21.2,8.6,58,30.61,10.0,NE,11.5,-,N/A,,Clear,50,2013-01-24 16:35:00
10:55 AM,21.2,6.8,54,30.60,10.0,ENE,11.5,16.1,N/A,,Clear,60,2013-01-24 16:55:00
11:15 AM,21.2,6.8,54,30.60,10.0,ENE,10.4,-,N/A,,Clear,70,2013-01-24 17:15:00
11:35 AM,23.0,10.4,59,30.58,10.0,ENE,11.5,16.1,N/A,,Clear,60,2013-01-24 17:35:00
11:55 AM,24.8,8.6,50,30.57,10.0,East,11.5,19.6,N/A,,Clear,80,2013-01-24 17:55:00
12:15 PM,24.8,8.6,50,30.56,10.0,ENE,6.9,-,N/A,,Clear,60,2013-01-24 18:15:00
12:35 PM,24.8,8.6,50,30.55,10.0,East,13.8,-,N/A,,Clear,80,2013-01-24 18:35:00
12:55 PM,26.6,8.6,47,30.54,10.0,ENE,10.4,-,N/A,,Clear,60,2013-01-24 18:55:00
1:15 PM,26.6,6.8,43,30.54,10.0,ENE,9.2,-,N/A,,Clear,60,2013-01-24 19:15:00
1:35 PM,26.6,8.6,47,30.53,10.0,East,9.2,-,N/A,,Clear,90,2013-01-24 19:35:00
1:55 PM,26.6,8.6,47,30.51,10.0,ENE,11.5,16.1,N/A,,Clear,60,2013-01-24 19:55:00
2:15 PM,26.6,6.8,43,30.51,10.0,East,10.4,-,N/A,,Clear,90,2013-01-24 20:15:00
2:35 PM,26.6,6.8,43,30.49,10.0,ENE,12.7,-,N/A,,Clear,70,2013-01-24 20:35:00
2:55 PM,26.6,8.6,47,30.48,10.0,ENE,13.8,17.3,N/A,,Clear,70,2013-01-24 20:55:00
3:15 PM,26.6,6.8,43,30.47,10.0,ENE,13.8,18.4,N/A,,Clear,70,2013-01-24 21:15:00
3:35 PM,26.6,6.8,43,30.47,10.0,ENE,10.4,-,N/A,,Clear,70,2013-01-24 21:35:00
3:55 PM,24.8,6.8,46,30.47,10.0,East,5.8,-,N/A,,Clear,90,2013-01-24 21:55:00
4:15 PM,24.8,6.8,46,30.47,10.0,East,10.4,-,N/A,,Clear,80,2013-01-24 22:15:00
4:35 PM,24.8,8.6,50,30.47,10.0,East,6.9,-,N/A,,Clear,90,2013-01-24 22:35:00
4:55 PM,24.8,6.8,46,30.46,10.0,East,6.9,-,N/A,,Clear,80,2013-01-24 22:55:00
5:15 PM,24.8,8.6,50,30.46,10.0,ENE,6.9,-,N/A,,Clear,70,2013-01-24 23:15:00
5:35 PM,24.8,8.6,50,30.45,10.0,ENE,5.8,-,N/A,,Clear,70,2013-01-24 23:35:00
5:55 PM,24.8,8.6,50,30.44,10.0,ENE,5.8,-,N/A,,Clear,70,2013-01-24 23:55:00
6:15 PM,24.8,8.6,50,30.45,10.0,East,4.6,-,N/A,,Clear,80,2013-01-25 00:15:00
6:35 PM,24.8,8.6,50,30.44,10.0,ENE,3.5,-,N/A,,Clear,70,2013-01-25 00:35:00
6:55 PM,24.8,8.6,50,30.43,10.0,East,4.6,-,N/A,,Clear,80,2013-01-25 00:55:00
7:15 PM,24.8,8.6,50,30.42,10.0,East,3.5,-,N/A,,Clear,90,2013-01-25 01:15:00
7:35 PM,24.8,8.6,50,30.41,10.0,East,3.5,-,N/A,,Clear,90,2013-01-25 01:35:00
7:55 PM,24.8,8.6,50,30.40,10.0,East,4.6,-,N/A,,Clear,90,2013-01-25 01:55:00
8:15 PM,24.8,8.6,50,30.40,10.0,East,4.6,-,N/A,,Clear,80,2013-01-25 02:15:00
8:35 PM,24.8,8.6,50,30.39,10.0,ENE,3.5,-,N/A,,Partly Cloudy,70,2013-01-25 02:35:00
8:55 PM,24.8,8.6,50,30.39,10.0,Calm,Calm,-,N/A,,Mostly Cloudy,0,2013-01-25 02:55:00
9:15 PM,26.6,8.6,47,30.38,10.0,East,5.8,-,N/A,,Overcast,80,2013-01-25 03:15:00
9:35 PM,26.6,10.4,51,30.36,10.0,East,8.1,-,N/A,,Overcast,100,2013-01-25 03:35:00
9:55 PM,26.6,8.6,47,30.35,10.0,East,6.9,-,N/A,,Overcast,80,2013-01-25 03:55:00
10:15 PM,26.6,8.6,47,30.35,10.0,East,5.8,-,N/A,,Overcast,100,2013-01-25 04:15:00
10:35 PM,26.6,8.6,47,30.34,10.0,SE,6.9,-,N/A,,Overcast,130,2013-01-25 04:35:00
10:55 PM,26.6,8.6,47,30.32,10.0,ESE,9.2,-,N/A,,Overcast,110,2013-01-25 04:55:00
11:15 PM,26.6,6.8,43,30.33,10.0,ESE,6.9,-,N/A,,Overcast,110,2013-01-25 05:15:00
11:35 PM,26.6,8.6,47,30.30,10.0,ESE,8.1,-,N/A,,Overcast,110,2013-01-25 05:35:00
11:55 PM,26.6,8.6,47,30.30,10.0,SE,5.8,-,N/A,,Overcast,130,2013-01-25 05:55:00